| time (UTC) | temp F | wind direction | speed MPH | gust MPH | rain 1hr in | rain 24hr in | rain mn in | humidity % | barometer mb |
| 20260831124531 | 79 | 324 | 1.0 | 2.0 | 0.00 | 0.69 | 0.05 | 100 | 1016.4 |
| 20260831124028 | 79 | 324 | 0.0 | 3.0 | 0.00 | 0.69 | 0.05 | 100 | 1016.4 |
| 20260831123557 | 79 | 323 | 2.0 | 3.0 | 0.00 | 0.69 | 0.05 | 100 | 1016.4 |
| 20260831123032 | 79 | 311 | 1.0 | 4.0 | 0.00 | 0.69 | 0.05 | 100 | 1016.3 |
| 20260831122525 | 78 | 328 | 1.0 | 4.0 | 0.00 | 0.70 | 0.05 | 100 | 1016.3 |
| 20260831122031 | 78 | 316 | 2.0 | 3.0 | 0.00 | 0.70 | 0.05 | 100 | 1016.3 |
| 20260831121547 | 78 | 333 | 2.0 | 3.0 | 0.00 | 0.70 | 0.05 | 100 | 1015.9 |
| 20260831121023 | 77 | 329 | 1.0 | 2.0 | 0.00 | 0.70 | 0.05 | 100 | 1015.9 |
| 20260831120538 | 77 | 318 | 0.0 | 1.0 | 0.00 | 0.70 | 0.05 | 100 | 1015.9 |
| 20260831120033 | 77 | 280 | 0.0 | 0.0 | 0.00 | 0.70 | 0.05 | 100 | 1015.8 |
| 20260831115528 | 77 | 280 | 0.0 | 0.0 | 0.00 | 0.70 | 0.05 | 100 | 1015.8 |
| 20260831115025 | 76 | 277 | 0.0 | 0.0 | 0.00 | 0.70 | 0.05 | 100 | 1015.8 |
| 20260831114553 | 76 | 277 | 0.0 | 0.0 | 0.00 | 0.70 | 0.05 | 100 | 1015.7 |
| 20260831114029 | 76 | 277 | 0.0 | 0.0 | 0.00 | 0.70 | 0.05 | 100 | 1015.7 |
| 20260831113523 | 76 | 277 | 0.0 | 0.0 | 0.00 | 0.70 | 0.05 | 100 | 1015.7 |
| 20260831113031 | 76 | 277 | 0.0 | 0.0 | 0.00 | 0.70 | 0.05 | 100 | 1015.5 |
| 20260831112527 | 76 | 277 | 0.0 | 0.0 | 0.00 | 0.70 | 0.05 | 100 | 1015.5 |
| 20260831112034 | 76 | 277 | 0.0 | 0.0 | 0.00 | 0.70 | 0.05 | 100 | 1015.5 |
| 20260831111532 | 76 | 277 | 0.0 | 0.0 | 0.00 | 0.70 | 0.05 | 100 | 1015.3 |
| 20260831111027 | 76 | 277 | 0.0 | 0.0 | 0.00 | 0.70 | 0.05 | 100 | 1015.3 |
| 20260831110525 | 76 | 277 | 0.0 | 0.0 | 0.00 | 0.70 | 0.05 | 100 | 1015.3 |
| 20260831110021 | 76 | 277 | 0.0 | 0.0 | 0.00 | 0.70 | 0.05 | 100 | 1015.3 |
| 20260831105537 | 76 | 277 | 0.0 | 0.0 | 0.00 | 0.70 | 0.05 | 100 | 1015.3 |
| 20260831105033 | 76 | 277 | 0.0 | 0.0 | 0.00 | 0.70 | 0.05 | 100 | 1015.3 |
| 20260831104550 | 76 | 277 | 0.0 | 0.0 | 0.00 | 0.70 | 0.05 | 100 | 1015.0 |
| 20260831104025 | 76 | 277 | 0.0 | 0.0 | 0.00 | 0.70 | 0.05 | 100 | 1015.0 |
| 20260831103534 | 76 | 277 | 0.0 | 0.0 | 0.00 | 0.70 | 0.05 | 100 | 1015.0 |
| 20260831103030 | 76 | 277 | 0.0 | 0.0 | 0.00 | 0.70 | 0.05 | 100 | 1014.9 |
| 20260831102526 | 76 | 277 | 0.0 | 0.0 | 0.00 | 0.72 | 0.05 | 100 | 1014.9 |
| 20260831102042 | 76 | 277 | 0.0 | 0.0 | 0.00 | 0.72 | 0.05 | 100 | 1014.9 |
| 20260831101553 | 76 | 277 | 0.0 | 0.0 | 0.00 | 0.72 | 0.05 | 100 | 1014.8 |
| 20260831101029 | 76 | 277 | 0.0 | 0.0 | 0.00 | 0.72 | 0.05 | 100 | 1014.8 |
| 20260831100524 | 76 | 277 | 0.0 | 0.0 | 0.00 | 0.72 | 0.05 | 100 | 1014.8 |
| 20260831100032 | 76 | 277 | 0.0 | 0.0 | 0.00 | 0.72 | 0.05 | 100 | 1014.8 |
| 20260831095528 | 76 | 277 | 0.0 | 0.0 | 0.00 | 0.72 | 0.05 | 100 | 1014.8 |
| 20260831095040 | 76 | 277 | 0.0 | 0.0 | 0.00 | 0.72 | 0.05 | 100 | 1014.8 |
| 20260831094529 | 76 | 277 | 0.0 | 0.0 | 0.00 | 0.72 | 0.05 | 100 | 1014.8 |
| 20260831094057 | 76 | 277 | 0.0 | 0.0 | 0.00 | 0.72 | 0.05 | 100 | 1014.8 |
| 20260831093553 | 76 | 277 | 0.0 | 0.0 | 0.00 | 0.72 | 0.05 | 100 | 1014.8 |
| 20260831093028 | 76 | 277 | 0.0 | 0.0 | 0.00 | 0.72 | 0.05 | 100 | 1014.9 |
| 20260831092556 | 76 | 277 | 0.0 | 1.0 | 0.00 | 0.72 | 0.05 | 100 | 1014.9 |
| 20260831092031 | 76 | 277 | 0.0 | 2.0 | 0.00 | 0.72 | 0.05 | 100 | 1014.9 |
| 20260831091528 | 76 | 277 | 0.0 | 1.0 | 0.00 | 0.72 | 0.05 | 100 | 1014.8 |
| 20260831091024 | 76 | 277 | 0.0 | 0.0 | 0.00 | 0.72 | 0.05 | 100 | 1014.8 |
| 20260831090534 | 76 | 277 | 0.0 | 0.0 | 0.00 | 0.72 | 0.05 | 100 | 1014.8 |
| 20260831090049 | 76 | 277 | 0.0 | 1.0 | 0.00 | 0.72 | 0.05 | 100 | 1015.1 |
| 20260831085532 | 76 | 277 | 0.0 | 1.0 | 0.00 | 0.72 | 0.05 | 100 | 1015.1 |
| 20260831085028 | 76 | 277 | 0.0 | 1.0 | 0.00 | 0.72 | 0.05 | 100 | 1015.1 |
| 20260831084521 | 76 | 277 | 0.0 | 1.0 | 0.00 | 0.72 | 0.05 | 100 | 1015.1 |
| 20260831084038 | 76 | 277 | 0.0 | 1.0 | 0.00 | 0.72 | 0.05 | 100 | 1015.1 |
| 20260831083535 | 76 | 277 | 0.0 | 0.0 | 0.00 | 0.72 | 0.05 | 100 | 1015.1 |
| 20260831083048 | 76 | 277 | 0.0 | 0.0 | 0.00 | 0.72 | 0.05 | 100 | 1015.2 |
| 20260831082522 | 76 | 277 | 0.0 | 0.0 | 0.00 | 0.72 | 0.05 | 100 | 1015.2 |
| 20260831082031 | 76 | 277 | 0.0 | 0.0 | 0.00 | 0.72 | 0.05 | 100 | 1015.2 |
| 20260831081526 | 76 | 277 | 0.0 | 0.0 | 0.00 | 0.72 | 0.05 | 100 | 1015.2 |
| 20260831081021 | 76 | 277 | 0.0 | 0.0 | 0.00 | 0.72 | 0.05 | 100 | 1015.2 |
| 20260831080537 | 76 | 277 | 0.0 | 0.0 | 0.00 | 0.72 | 0.05 | 100 | 1015.2 |
| 20260831080033 | 76 | 277 | 0.0 | 0.0 | 0.00 | 0.72 | 0.05 | 100 | 1015.1 |
| 20260831075530 | 76 | 277 | 0.0 | 0.0 | 0.00 | 0.72 | 0.05 | 100 | 1015.1 |
| 20260831075027 | 76 | 277 | 0.0 | 0.0 | 0.00 | 0.72 | 0.05 | 100 | 1015.1 |
| 20260831074556 | 76 | 277 | 0.0 | 1.0 | 0.00 | 0.72 | 0.05 | 100 | 1015.3 |
| 20260831074031 | 76 | 277 | 0.0 | 1.0 | 0.00 | 0.72 | 0.05 | 100 | 1015.3 |
| 20260831073528 | 76 | 277 | 0.0 | 0.0 | 0.00 | 0.72 | 0.05 | 100 | 1015.3 |
| 20260831073036 | 76 | 277 | 0.0 | 1.0 | 0.00 | 0.72 | 0.05 | 100 | 1015.4 |
| 20260831072551 | 76 | 277 | 0.0 | 1.0 | 0.00 | 0.72 | 0.05 | 100 | 1015.4 |
| 20260831072027 | 76 | 277 | 0.0 | 0.0 | 0.00 | 0.72 | 0.05 | 100 | 1015.4 |
| 20260831071536 | 76 | 277 | 0.0 | 0.0 | 0.00 | 0.72 | 0.05 | 100 | 1015.5 |
| 20260831071032 | 76 | 277 | 0.0 | 0.0 | 0.00 | 0.72 | 0.05 | 100 | 1015.5 |
| 20260831070528 | 76 | 277 | 0.0 | 1.0 | 0.00 | 0.72 | 0.05 | 100 | 1015.5 |
| 20260831070036 | 76 | 277 | 0.0 | 1.0 | 0.00 | 0.72 | 0.05 | 100 | 1015.5 |
| 20260831065531 | 77 | 277 | 0.0 | 2.0 | 0.00 | 0.72 | 0.05 | 100 | 1015.5 |
| 20260831065044 | 77 | 278 | 0.0 | 2.0 | 0.01 | 0.72 | 0.05 | 100 | 1015.5 |
| 20260831064552 | 77 | 278 | 0.0 | 2.0 | 0.01 | 0.72 | 0.05 | 100 | 1015.5 |
| 20260831064028 | 77 | 247 | 1.0 | 2.0 | 0.04 | 0.72 | 0.05 | 100 | 1015.5 |
| 20260831063522 | 77 | 147 | 0.0 | 0.0 | 0.05 | 0.72 | 0.05 | 100 | 1015.5 |
| 20260831063030 | 77 | 147 | 0.0 | 0.0 | 0.05 | 0.72 | 0.05 | 100 | 1015.4 |
| 20260831062525 | 77 | 147 | 0.0 | 0.0 | 0.05 | 0.72 | 0.05 | 100 | 1015.4 |
| 20260831062033 | 77 | 147 | 0.0 | 0.0 | 0.05 | 0.72 | 0.05 | 100 | 1015.4 |
| 20260831061529 | 77 | 147 | 0.0 | 0.0 | 0.05 | 0.72 | 0.05 | 100 | 1015.8 |
| 20260831061024 | 77 | 147 | 0.0 | 0.0 | 0.05 | 0.72 | 0.05 | 100 | 1015.8 |
| 20260831060554 | 77 | 147 | 0.0 | 0.0 | 0.05 | 0.72 | 0.05 | 100 | 1015.8 |
| 20260831060029 | 77 | 147 | 0.0 | 0.0 | 0.05 | 0.72 | 0.05 | 100 | 1015.9 |
| 20260831055524 | 77 | 147 | 0.0 | 0.0 | 0.05 | 0.72 | 0.05 | 100 | 1015.9 |
| 20260831055033 | 77 | 147 | 0.0 | 1.0 | 0.04 | 0.71 | 0.04 | 100 | 1015.9 |
| 20260831054529 | 77 | 147 | 0.0 | 1.0 | 0.04 | 0.71 | 0.04 | 100 | 1016.4 |
| 20260831054045 | 77 | 147 | 0.0 | 2.0 | 0.01 | 0.68 | 0.01 | 100 | 1016.4 |
| 20260831053534 | 77 | 147 | 0.0 | 2.0 | 0.00 | 0.67 | 0.00 | 100 | 1016.4 |
| 20260831053030 | 77 | 148 | 0.0 | 3.0 | 0.00 | 0.67 | 0.00 | 100 | 1016.2 |
| 20260831052548 | 77 | 148 | 0.0 | 3.0 | 0.00 | 0.67 | 0.00 | 100 | 1016.2 |
| 20260831052021 | 77 | 76 | 0.0 | 0.0 | 0.00 | 0.67 | 0.00 | 100 | 1016.2 |
| 20260831051535 | 77 | 76 | 0.0 | 0.0 | 0.00 | 0.67 | 0.00 | 100 | 1016.4 |
| 20260831051032 | 77 | 76 | 0.0 | 0.0 | 0.00 | 0.67 | 0.00 | 100 | 1016.4 |
| 20260831050527 | 77 | 76 | 0.0 | 0.0 | 0.00 | 0.67 | 0.00 | 100 | 1016.4 |
| 20260831050036 | 77 | 76 | 0.0 | 0.0 | 0.00 | 0.67 | 0.00 | 100 | 1016.4 |
| 20260831045533 | 76 | 76 | 0.0 | 0.0 | 0.00 | 0.67 | 0.00 | 100 | 1016.4 |
| 20260831045046 | 76 | 76 | 0.0 | 0.0 | 0.00 | 0.67 | 0.00 | 99 | 1016.4 |
| 20260831044527 | 76 | 76 | 0.0 | 0.0 | 0.00 | 0.67 | 0.00 | 99 | 1016.4 |
| 20260831044024 | 76 | 76 | 0.0 | 0.0 | 0.00 | 0.67 | 0.00 | 99 | 1016.4 |
| 20260831043521 | 76 | 76 | 0.0 | 0.0 | 0.00 | 0.67 | 0.00 | 99 | 1016.4 |
| 20260831043037 | 76 | 76 | 0.0 | 0.0 | 0.00 | 0.67 | 0.00 | 98 | 1016.6 |
| 20260831042528 | 76 | 76 | 0.0 | 0.0 | 0.00 | 0.67 | 0.00 | 98 | 1016.6 |
| 20260831042102 | 76 | 76 | 0.0 | 0.0 | 0.00 | 0.67 | 0.00 | 98 | 1016.6 |
| 20260831041530 | 77 | 76 | 0.0 | 0.0 | 0.00 | 0.67 | 0.00 | 98 | 1016.7 |
| 20260831041025 | 77 | 76 | 0.0 | 0.0 | 0.00 | 0.67 | 0.00 | 98 | 1016.7 |
| 20260831040554 | 77 | 76 | 0.0 | 0.0 | 0.00 | 0.67 | 0.00 | 97 | 1016.7 |
| 20260831040028 | 77 | 76 | 0.0 | 0.0 | 0.00 | 0.67 | 0.67 | 97 | 1016.9 |
| 20260831035536 | 77 | 76 | 0.0 | 0.0 | 0.00 | 0.67 | 0.67 | 97 | 1016.9 |
| 20260831035033 | 77 | 76 | 0.0 | 0.0 | 0.00 | 0.67 | 0.67 | 97 | 1016.9 |
| 20260831034546 | 77 | 76 | 0.0 | 0.0 | 0.00 | 0.67 | 0.67 | 96 | 1016.8 |
| 20260831034034 | 77 | 76 | 0.0 | 0.0 | 0.00 | 0.67 | 0.67 | 96 | 1016.8 |
| 20260831033551 | 77 | 76 | 0.0 | 0.0 | 0.00 | 0.67 | 0.67 | 96 | 1016.8 |
| 20260831033025 | 77 | 76 | 0.0 | 0.0 | 0.00 | 0.67 | 0.67 | 96 | 1016.8 |
| 20260831032533 | 77 | 76 | 0.0 | 0.0 | 0.00 | 0.67 | 0.67 | 96 | 1016.8 |
| 20260831032029 | 77 | 76 | 0.0 | 0.0 | 0.00 | 0.67 | 0.67 | 96 | 1016.8 |
| 20260831031554 | 77 | 76 | 0.0 | 0.0 | 0.00 | 0.67 | 0.67 | 95 | 1016.5 |
| 20260831031028 | 77 | 76 | 0.0 | 0.0 | 0.00 | 0.67 | 0.67 | 94 | 1016.5 |
| 20260831030525 | 77 | 76 | 0.0 | 0.0 | 0.00 | 0.67 | 0.67 | 94 | 1016.5 |
| 20260831030059 | 77 | 76 | 0.0 | 0.0 | 0.00 | 0.67 | 0.67 | 94 | 1016.5 |
| 20260831025531 | 77 | 76 | 0.0 | 0.0 | 0.00 | 0.67 | 0.67 | 94 | 1016.5 |
| 20260831025029 | 77 | 76 | 0.0 | 0.0 | 0.00 | 0.67 | 0.67 | 93 | 1016.5 |
| 20260831024525 | 77 | 76 | 0.0 | 0.0 | 0.00 | 0.67 | 0.67 | 93 | 1016.5 |
| 20260831024032 | 77 | 76 | 0.0 | 0.0 | 0.00 | 0.67 | 0.67 | 92 | 1016.5 |
| 20260831023529 | 77 | 76 | 0.0 | 0.0 | 0.00 | 0.67 | 0.67 | 92 | 1016.5 |
| 20260831023021 | 77 | 76 | 0.0 | 0.0 | 0.00 | 0.67 | 0.67 | 92 | 1016.7 |
| 20260831022531 | 77 | 76 | 0.0 | 0.0 | 0.00 | 0.67 | 0.67 | 92 | 1016.7 |
| 20260831022027 | 77 | 76 | 0.0 | 0.0 | 0.00 | 0.67 | 0.67 | 91 | 1016.7 |
| 20260831021523 | 77 | 76 | 0.0 | 0.0 | 0.00 | 0.67 | 0.67 | 91 | 1016.8 |
| 20260831021035 | 77 | 76 | 0.0 | 0.0 | 0.00 | 0.67 | 0.67 | 91 | 1016.8 |
| 20260831020530 | 78 | 76 | 0.0 | 0.0 | 0.00 | 0.67 | 0.67 | 91 | 1016.8 |
| 20260831020031 | 78 | 76 | 0.0 | 0.0 | 0.00 | 0.67 | 0.67 | 91 | 1016.8 |
| 20260831015547 | 78 | 76 | 0.0 | 0.0 | 0.00 | 0.67 | 0.67 | 91 | 1016.8 |
| 20260831015022 | 78 | 76 | 0.0 | 0.0 | 0.00 | 0.67 | 0.67 | 90 | 1016.8 |
| 20260831014535 | 78 | 76 | 0.0 | 0.0 | 0.00 | 0.67 | 0.67 | 90 | 1016.9 |
| 20260831014030 | 78 | 76 | 0.0 | 0.0 | 0.00 | 0.67 | 0.67 | 90 | 1016.9 |
| 20260831013527 | 78 | 77 | 0.0 | 0.0 | 0.00 | 0.67 | 0.67 | 90 | 1016.9 |
| 20260831013026 | 78 | 77 | 0.0 | 0.0 | 0.00 | 0.67 | 0.67 | 90 | 1016.8 |
| 20260831012533 | 78 | 77 | 0.0 | 0.0 | 0.00 | 0.67 | 0.67 | 90 | 1016.8 |
| 20260831012029 | 78 | 77 | 0.0 | 0.0 | 0.00 | 0.67 | 0.67 | 90 | 1016.8 |
| 20260831011536 | 78 | 77 | 0.0 | 0.0 | 0.00 | 0.67 | 0.67 | 89 | 1016.9 |
| 20260831011032 | 78 | 77 | 0.0 | 0.0 | 0.00 | 0.67 | 0.67 | 88 | 1016.9 |
| 20260831010529 | 78 | 77 | 0.0 | 0.0 | 0.00 | 0.67 | 0.67 | 88 | 1016.9 |
| 20260831010024 | 79 | 77 | 0.0 | 1.0 | 0.00 | 0.67 | 0.67 | 87 | 1016.8 |
| 20260831005521 | 79 | 77 | 0.0 | 1.0 | 0.00 | 0.67 | 0.67 | 87 | 1016.8 |
| 20260831005036 | 79 | 82 | 0.0 | 0.0 | 0.00 | 0.67 | 0.67 | 86 | 1016.8 |
| 20260831004532 | 79 | 82 | 0.0 | 0.0 | 0.00 | 0.67 | 0.67 | 85 | 1016.5 |
| 20260831004029 | 79 | 82 | 0.0 | 0.0 | 0.00 | 0.67 | 0.67 | 84 | 1016.5 |
| 20260831003528 | 79 | 82 | 0.0 | 0.0 | 0.00 | 0.67 | 0.67 | 84 | 1016.5 |
| 20260831003031 | 79 | 82 | 0.0 | 0.0 | 0.00 | 0.67 | 0.67 | 83 | 1016.4 |
| 20260831002527 | 79 | 82 | 0.0 | 0.0 | 0.00 | 0.67 | 0.67 | 83 | 1016.4 |
| 20260831002022 | 79 | 82 | 0.0 | 0.0 | 0.00 | 0.67 | 0.67 | 83 | 1016.4 |
| 20260831001549 | 79 | 82 | 0.0 | 0.0 | 0.00 | 0.67 | 0.67 | 82 | 1016.4 |
| 20260831001022 | 80 | 82 | 0.0 | 0.0 | 0.00 | 0.67 | 0.67 | 82 | 1016.4 |
| 20260831000531 | 80 | 82 | 0.0 | 0.0 | 0.00 | 0.67 | 0.67 | 82 | 1016.4 |
| 20260831000028 | 80 | 82 | 0.0 | 0.0 | 0.00 | 0.67 | 0.67 | 81 | 1016.4 |
| 20260830235532 | 80 | 82 | 0.0 | 0.0 | 0.00 | 0.67 | 0.67 | 80 | 1016.4 |
| 20260830235028 | 80 | 82 | 0.0 | 0.0 | 0.00 | 0.67 | 0.67 | 80 | 1016.4 |
| 20260830234536 | 80 | 82 | 0.0 | 0.0 | 0.00 | 0.67 | 0.67 | 79 | 1016.2 |
| 20260830234051 | 81 | 82 | 0.0 | 0.0 | 0.00 | 0.67 | 0.67 | 79 | 1016.2 |
| 20260830233526 | 81 | 82 | 0.0 | 0.0 | 0.00 | 0.67 | 0.67 | 79 | 1016.2 |
| 20260830233054 | 81 | 82 | 0.0 | 0.0 | 0.00 | 0.67 | 0.67 | 79 | 1015.9 |
| 20260830232528 | 81 | 82 | 0.0 | 0.0 | 0.00 | 0.68 | 0.67 | 77 | 1015.9 |
| 20260830232024 | 81 | 82 | 0.0 | 1.0 | 0.00 | 0.68 | 0.67 | 76 | 1015.9 |
| 20260830231554 | 81 | 82 | 0.0 | 1.0 | 0.00 | 0.68 | 0.67 | 78 | 1015.5 |
| 20260830231029 | 81 | 82 | 0.0 | 1.0 | 0.00 | 0.68 | 0.67 | 78 | 1015.5 |
| 20260830230525 | 81 | 82 | 0.0 | 1.0 | 0.00 | 0.68 | 0.67 | 78 | 1015.5 |
| 20260830230050 | 81 | 82 | 0.0 | 1.0 | 0.00 | 0.68 | 0.67 | 78 | 1015.5 |
| 20260830225524 | 81 | 82 | 0.0 | 1.0 | 0.00 | 0.68 | 0.67 | 76 | 1015.5 |
| 20260830225040 | 81 | 82 | 0.0 | 0.0 | 0.00 | 0.68 | 0.67 | 77 | 1015.5 |
| 20260830224534 | 81 | 82 | 0.0 | 2.0 | 0.00 | 0.68 | 0.67 | 77 | 1015.9 |
| 20260830224028 | 82 | 82 | 0.0 | 3.0 | 0.00 | 0.68 | 0.67 | 77 | 1015.9 |
| 20260830223523 | 82 | 82 | 1.0 | 3.0 | 0.00 | 0.68 | 0.67 | 76 | 1015.9 |
| 20260830223038 | 82 | 69 | 1.0 | 2.0 | 0.00 | 0.68 | 0.67 | 75 | 1015.9 |
| 20260830222533 | 82 | 71 | 1.0 | 2.0 | 0.00 | 0.71 | 0.67 | 74 | 1015.9 |
| 20260830222025 | 82 | 72 | 0.0 | 2.0 | 0.00 | 0.71 | 0.67 | 75 | 1015.9 |
| 20260830221521 | 82 | 58 | 1.0 | 2.0 | 0.00 | 0.71 | 0.67 | 74 | 1015.9 |
| 20260830221021 | 82 | 89 | 1.0 | 1.0 | 0.00 | 0.71 | 0.67 | 73 | 1015.9 |
| 20260830220529 | 82 | 87 | 0.0 | 2.0 | 0.00 | 0.71 | 0.67 | 74 | 1015.9 |
| 20260830220025 | 83 | 91 | 1.0 | 2.0 | 0.00 | 0.71 | 0.67 | 73 | 1015.8 |
| 20260830215553 | 83 | 75 | 1.0 | 2.0 | 0.00 | 0.71 | 0.67 | 71 | 1015.8 |
| 20260830215029 | 83 | 61 | 1.0 | 2.0 | 0.00 | 0.71 | 0.67 | 68 | 1015.8 |
| 20260830214525 | 84 | 65 | 0.0 | 2.0 | 0.00 | 0.71 | 0.67 | 69 | 1015.6 |
| 20260830214033 | 84 | 39 | 0.0 | 2.0 | 0.00 | 0.71 | 0.67 | 68 | 1015.6 |
| 20260830213532 | 84 | 96 | 1.0 | 3.0 | 0.00 | 0.71 | 0.67 | 67 | 1015.6 |
| 20260830213046 | 84 | 56 | 1.0 | 3.0 | 0.00 | 0.71 | 0.67 | 68 | 1015.8 |
| 20260830212533 | 85 | 30 | 1.0 | 3.0 | 0.00 | 0.74 | 0.67 | 66 | 1015.8 |
| 20260830212030 | 85 | 51 | 0.0 | 3.0 | 0.00 | 0.74 | 0.67 | 68 | 1015.8 |
| 20260830211526 | 85 | 46 | 1.0 | 3.0 | 0.00 | 0.74 | 0.67 | 67 | 1015.9 |
| 20260830211033 | 85 | 44 | 1.0 | 2.0 | 0.00 | 0.74 | 0.67 | 69 | 1015.9 |
| 20260830210529 | 85 | 60 | 2.0 | 4.0 | 0.00 | 0.74 | 0.67 | 66 | 1015.9 |
| 20260830210028 | 84 | 44 | 1.0 | 4.0 | 0.00 | 0.74 | 0.67 | 66 | 1015.8 |
| 20260830205555 | 84 | 44 | 1.0 | 4.0 | 0.00 | 0.74 | 0.67 | 70 | 1015.8 |
| 20260830205030 | 84 | 21 | 0.0 | 4.0 | 0.00 | 0.74 | 0.67 | 70 | 1015.8 |
| 20260830204527 | 84 | 46 | 2.0 | 4.0 | 0.00 | 0.74 | 0.67 | 69 | 1015.8 |
| 20260830204058 | 84 | 37 | 1.0 | 5.0 | 0.00 | 0.74 | 0.67 | 69 | 1015.8 |
| 20260830203530 | 83 | 51 | 1.0 | 5.0 | 0.00 | 0.74 | 0.67 | 71 | 1015.8 |
| 20260830203026 | 83 | 37 | 1.0 | 3.0 | 0.00 | 0.74 | 0.67 | 73 | 1016.2 |
| 20260830202543 | 83 | 37 | 1.0 | 4.0 | 0.00 | 0.74 | 0.67 | 73 | 1016.2 |
| 20260830202032 | 83 | 64 | 2.0 | 4.0 | 0.00 | 0.74 | 0.67 | 75 | 1016.2 |
| 20260830201529 | 83 | 39 | 2.0 | 3.0 | 0.00 | 0.74 | 0.67 | 77 | 1016.2 |
| 20260830201022 | 83 | 44 | 1.0 | 3.0 | 0.00 | 0.74 | 0.67 | 84 | 1016.2 |
| 20260830200531 | 82 | 62 | 0.0 | 3.0 | 0.00 | 0.74 | 0.67 | 88 | 1016.2 |
| 20260830200027 | 82 | 350 | 2.0 | 3.0 | 0.00 | 0.74 | 0.67 | 91 | 1016.3 |
| 20260830195524 | 81 | 64 | 0.0 | 3.0 | 0.00 | 0.74 | 0.67 | 93 | 1016.3 |
| 20260830195022 | 81 | 359 | 2.0 | 3.0 | 0.00 | 0.74 | 0.67 | 98 | 1016.3 |
| 20260830194551 | 80 | 359 | 0.0 | 0.0 | 0.00 | 0.74 | 0.67 | 100 | 1016.3 |
| 20260830194027 | 80 | 25 | 0.0 | 0.0 | 0.00 | 0.74 | 0.67 | 100 | 1016.3 |
| 20260830193525 | 79 | 25 | 0.0 | 0.0 | 0.00 | 0.74 | 0.67 | 100 | 1016.3 |
| 20260830193054 | 79 | 25 | 0.0 | 0.0 | 0.00 | 0.74 | 0.67 | 100 | 1016.4 |
| 20260830192528 | 79 | 25 | 0.0 | 0.0 | 0.00 | 0.74 | 0.67 | 100 | 1016.4 |
| 20260830192037 | 79 | 25 | 0.0 | 0.0 | 0.00 | 0.74 | 0.67 | 100 | 1016.4 |
| 20260830191552 | 79 | 25 | 0.0 | 0.0 | 0.00 | 0.74 | 0.67 | 100 | 1016.3 |
| 20260830191027 | 79 | 38 | 0.0 | 0.0 | 0.00 | 0.74 | 0.67 | 100 | 1016.3 |
| 20260830190536 | 79 | 39 | 0.0 | 0.0 | 0.00 | 0.74 | 0.67 | 100 | 1016.3 |
| 20260830190031 | 78 | 39 | 0.0 | 0.0 | 0.00 | 0.74 | 0.67 | 100 | 1016.4 |
| 20260830185528 | 78 | 39 | 0.0 | 0.0 | 0.01 | 0.74 | 0.67 | 100 | 1016.4 |
| 20260830185024 | 78 | 39 | 0.0 | 0.0 | 0.01 | 0.74 | 0.67 | 100 | 1016.4 |
| 20260830184537 | 78 | 39 | 0.0 | 0.0 | 0.01 | 0.74 | 0.67 | 100 | 1016.6 |
| 20260830184031 | 78 | 39 | 0.0 | 0.0 | 0.01 | 0.74 | 0.67 | 100 | 1016.6 |
| 20260830183527 | 78 | 37 | 0.0 | 2.0 | 0.01 | 0.74 | 0.67 | 100 | 1016.6 |
| 20260830183031 | 78 | 37 | 0.0 | 2.0 | 0.01 | 0.74 | 0.67 | 100 | 1016.9 |
| 20260830182527 | 78 | 6 | 0.0 | 2.0 | 0.01 | 0.74 | 0.67 | 100 | 1016.9 |
| 20260830182044 | 78 | 24 | 1.0 | 1.0 | 0.01 | 0.74 | 0.67 | 100 | 1016.9 |
| 20260830181531 | 78 | 101 | 0.0 | 2.0 | 0.01 | 0.74 | 0.67 | 100 | 1017.4 |
| 20260830181028 | 78 | 99 | 1.0 | 2.0 | 0.01 | 0.74 | 0.67 | 100 | 1017.4 |
| 20260830180523 | 78 | 91 | 0.0 | 2.0 | 0.01 | 0.74 | 0.67 | 100 | 1017.4 |
| 20260830180053 | 77 | 91 | 0.0 | 2.0 | 0.01 | 0.74 | 0.67 | 100 | 1017.5 |
| 20260830175548 | 77 | 91 | 1.0 | 5.0 | 0.01 | 0.73 | 0.66 | 100 | 1017.5 |
| 20260830175036 | 77 | 120 | 1.0 | 5.0 | 0.02 | 0.73 | 0.66 | 100 | 1017.5 |
| 20260830174552 | 77 | 30 | 1.0 | 4.0 | 0.02 | 0.73 | 0.66 | 100 | 1017.9 |
| 20260830174026 | 77 | 52 | 2.0 | 4.0 | 0.02 | 0.73 | 0.66 | 100 | 1017.9 |
| 20260830173523 | 77 | 39 | 0.0 | 2.0 | 0.03 | 0.73 | 0.66 | 100 | 1017.9 |
| 20260830173058 | 77 | 40 | 0.0 | 3.0 | 0.04 | 0.73 | 0.66 | 100 | 1018.2 |
| 20260830172552 | 76 | 27 | 0.0 | 3.0 | 0.04 | 0.73 | 0.66 | 100 | 1018.2 |
| 20260830172026 | 76 | 29 | 1.0 | 5.0 | 0.05 | 0.73 | 0.66 | 100 | 1018.2 |
| 20260830171528 | 76 | 37 | 1.0 | 5.0 | 0.07 | 0.73 | 0.66 | 100 | 1018.1 |
| 20260830171024 | 75 | 357 | 0.0 | 2.0 | 0.14 | 0.73 | 0.66 | 100 | 1018.1 |
| 20260830170532 | 75 | 39 | 0.0 | 3.0 | 0.27 | 0.73 | 0.66 | 100 | 1018.1 |
| 20260830170027 | 76 | 39 | 0.0 | 3.0 | 0.39 | 0.73 | 0.66 | 100 | 1018.7 |
| 20260830165523 | 76 | 36 | 1.0 | 3.0 | 0.40 | 0.72 | 0.65 | 100 | 1018.7 |
| 20260830165030 | 76 | 71 | 0.0 | 0.0 | 0.42 | 0.72 | 0.65 | 100 | 1018.7 |
| 20260830164524 | 76 | 71 | 0.0 | 2.0 | 0.53 | 0.71 | 0.64 | 100 | 1018.7 |
| 20260830164040 | 76 | 71 | 0.0 | 3.0 | 0.59 | 0.71 | 0.64 | 100 | 1018.7 |
| 20260830163526 | 76 | 110 | 1.0 | 3.0 | 0.58 | 0.70 | 0.63 | 100 | 1018.7 |
| 20260830163021 | 76 | 75 | 0.0 | 2.0 | 0.58 | 0.69 | 0.62 | 100 | 1019.0 |
| 20260830162552 | 76 | 40 | 0.0 | 1.0 | 0.59 | 0.69 | 0.62 | 100 | 1019.0 |
| 20260830162027 | 76 | 40 | 0.0 | 1.0 | 0.58 | 0.68 | 0.61 | 100 | 1019.0 |
| 20260830161535 | 75 | 40 | 0.0 | 3.0 | 0.56 | 0.66 | 0.59 | 100 | 1018.9 |
| 20260830161027 | 76 | 40 | 0.0 | 5.0 | 0.50 | 0.60 | 0.53 | 100 | 1018.9 |
| 20260830160536 | 76 | 94 | 0.0 | 7.0 | 0.37 | 0.47 | 0.40 | 100 | 1018.9 |
| 20260830160030 | 76 | 104 | 3.0 | 7.0 | 0.24 | 0.34 | 0.27 | 100 | 1018.6 |
| 20260830155527 | 76 | 183 | 1.0 | 6.0 | 0.22 | 0.32 | 0.25 | 100 | 1018.6 |
| 20260830155044 | 77 | 113 | 2.0 | 6.0 | 0.20 | 0.30 | 0.23 | 100 | 1018.6 |
| 20260830154535 | 77 | 160 | 1.0 | 3.0 | 0.10 | 0.20 | 0.13 | 100 | 1018.1 |
| 20260830154035 | 77 | 345 | 0.0 | 3.0 | 0.02 | 0.12 | 0.05 | 100 | 1018.1 |
| 20260830153524 | 77 | 79 | 0.0 | 2.0 | 0.02 | 0.12 | 0.05 | 100 | 1018.1 |
| 20260830153039 | 77 | 79 | 0.0 | 4.0 | 0.01 | 0.11 | 0.04 | 100 | 1018.1 |
| 20260830152527 | 78 | 79 | 1.0 | 5.0 | 0.00 | 0.10 | 0.03 | 100 | 1018.1 |
| 20260830152025 | 78 | 162 | 0.0 | 5.0 | 0.00 | 0.10 | 0.03 | 100 | 1018.1 |
| 20260830151522 | 78 | 150 | 1.0 | 12.0 | 0.00 | 0.10 | 0.03 | 100 | 1017.9 |
| 20260830151029 | 79 | 55 | 1.0 | 12.0 | 0.00 | 0.10 | 0.03 | 100 | 1017.9 |
| 20260830150533 | 79 | 81 | 0.0 | 3.0 | 0.00 | 0.10 | 0.03 | 100 | 1017.9 |
| 20260830150029 | 80 | 106 | 1.0 | 4.0 | 0.00 | 0.10 | 0.03 | 100 | 1017.7 |
| 20260830145526 | 80 | 89 | 1.0 | 4.0 | 0.00 | 0.10 | 0.03 | 100 | 1017.7 |
| 20260830145021 | 81 | 99 | 1.0 | 2.0 | 0.00 | 0.10 | 0.03 | 100 | 1017.7 |
| 20260830144534 | 81 | 32 | 0.0 | 2.0 | 0.00 | 0.10 | 0.03 | 100 | 1017.5 |
| 20260830144030 | 81 | 2 | 0.0 | 2.0 | 0.00 | 0.10 | 0.03 | 100 | 1017.5 |
| 20260830143526 | 81 | 133 | 0.0 | 2.0 | 0.00 | 0.10 | 0.03 | 100 | 1017.5 |
| 20260830143022 | 81 | 202 | 0.0 | 2.0 | 0.00 | 0.10 | 0.03 | 100 | 1017.8 |
| 20260830142536 | 81 | 202 | 0.0 | 1.0 | 0.00 | 0.10 | 0.03 | 100 | 1017.8 |
| 20260830142033 | 81 | 202 | 0.0 | 1.0 | 0.00 | 0.10 | 0.03 | 100 | 1017.8 |
| 20260830141547 | 81 | 202 | 0.0 | 1.0 | 0.00 | 0.10 | 0.03 | 100 | 1017.8 |
| 20260830141036 | 81 | 202 | 0.0 | 2.0 | 0.00 | 0.10 | 0.03 | 100 | 1017.8 |
| 20260830140531 | 80 | 202 | 1.0 | 2.0 | 0.00 | 0.10 | 0.03 | 100 | 1017.8 |
| 20260830140026 | 80 | 214 | 1.0 | 2.0 | 0.00 | 0.10 | 0.03 | 100 | 1017.7 |
| 20260830135543 | 80 | 185 | 0.0 | 2.0 | 0.00 | 0.10 | 0.03 | 100 | 1017.7 |
| 20260830135033 | 80 | 185 | 1.0 | 3.0 | 0.00 | 0.10 | 0.03 | 100 | 1017.7 |
| 20260830134528 | 80 | 185 | 0.0 | 5.0 | 0.00 | 0.10 | 0.03 | 100 | 1017.7 |
| 20260830134042 | 80 | 245 | 3.0 | 5.0 | 0.00 | 0.10 | 0.03 | 100 | 1017.7 |
| 20260830133530 | 80 | 271 | 0.0 | 2.0 | 0.00 | 0.10 | 0.03 | 100 | 1017.7 |
| 20260830133043 | 80 | 271 | 0.0 | 1.0 | 0.00 | 0.10 | 0.03 | 100 | 1017.5 |
| 20260830132530 | 80 | 271 | 0.0 | 3.0 | 0.00 | 0.11 | 0.03 | 100 | 1017.5 |
| 20260830132047 | 80 | 271 | 1.0 | 3.0 | 0.00 | 0.11 | 0.03 | 100 | 1017.5 |
| 20260830131554 | 80 | 303 | 0.0 | 3.0 | 0.00 | 0.11 | 0.03 | 100 | 1017.4 |
| 20260830131026 | 80 | 63 | 0.0 | 2.0 | 0.01 | 0.11 | 0.03 | 100 | 1017.4 |
| 20260830130536 | 80 | 68 | 0.0 | 0.0 | 0.01 | 0.11 | 0.03 | 100 | 1017.4 |
| 20260830130031 | 80 | 68 | 0.0 | 0.0 | 0.01 | 0.11 | 0.03 | 100 | 1017.2 |
| 20260830125525 | 79 | 68 | 0.0 | 0.0 | 0.01 | 0.11 | 0.03 | 100 | 1017.2 |
| 20260830125033 | 79 | 68 | 0.0 | 0.0 | 0.01 | 0.11 | 0.03 | 100 | 1017.2 |